Location: La Fredeussais
(48.1780°N, 1.3980°W)
Time: 05:17:03
(UTC+00:00)

STARLINK-2695 - Pass Details

Date: 07 December 2021
Orbit: 546 x 548 km, 53.1° (Epoch: 25 January)

Event Time Altitude Azimuth Distance (km) Brightness Sun altitude
Rises 19:19:37 0° 294° (WNW) 2,723 8.1 -30.3°
Reaches altitude 10° 19:21:53 10° 298° (WNW) 1,827 7.0 -30.6°
Enters shadow 19:23:26 22° 304° (WNW) 1,238 5.9 -30.9°
